TimeEST,TemperatureF,Dew PointF,Humidity,Sea Level PressureIn,VisibilityMPH,Wind Direction,Wind SpeedMPH,Gust SpeedMPH,PrecipitationIn,Events,Conditions,WindDirDegrees,DateUTC
12:00 AM,75.2,68.0,78,30.01,6.2,ESE,3.5,-,N/A,,Scattered Clouds,120,2013-03-09 05:00:00
1:00 AM,74,68,75,30.01,12,ENE,4.6,,,,Scattered Clouds,60,2013-03-09 06:00:00
1:00 AM,73.4,68.0,83,30.01,6.2,ENE,4.6,-,N/A,,Partly Cloudy,60,2013-03-09 06:00:00
2:00 AM,73.4,68.0,83,29.98,6.2,East,5.8,-,N/A,,Partly Cloudy,90,2013-03-09 07:00:00
3:00 AM,75.2,68.0,78,29.95,6.2,ESE,6.9,-,N/A,,Mostly Cloudy,110,2013-03-09 08:00:00
4:00 AM,75,67,70,29.95,12,East,6.9,,,,Mostly Cloudy,100,2013-03-09 09:00:00
4:00 AM,75.2,68.0,78,29.95,6.2,East,6.9,-,N/A,,Mostly Cloudy,100,2013-03-09 09:00:00
5:00 AM,75.2,68.0,78,29.95,6.2,East,6.9,-,N/A,,Mostly Cloudy,100,2013-03-09 10:00:00
6:00 AM,73.4,68.0,83,29.98,6.2,ESE,1.2,-,N/A,,Partly Cloudy,110,2013-03-09 11:00:00
7:00 AM,75,67,69,30.01,16,ESE,6.9,,,,Scattered Clouds,120,2013-03-09 12:00:00
7:00 AM,75.2,66.2,73,30.01,6.2,ESE,6.9,-,N/A,,Partly Cloudy,120,2013-03-09 12:00:00
8:00 AM,77.0,66.2,69,30.01,6.2,ESE,12.7,-,N/A,,Partly Cloudy,110,2013-03-09 13:00:00
9:00 AM,78.8,68.0,69,30.04,6.2,ESE,16.1,-,N/A,,Partly Cloudy,110,2013-03-09 14:00:00
10:00 AM,80,68,60,30.06,16,East,21.9,,,,Scattered Clouds,80,2013-03-09 15:00:00
10:00 AM,80.6,68.0,65,30.04,6.2,East,21.9,-,N/A,,Partly Cloudy,80,2013-03-09 15:00:00
11:00 AM,80.6,68.0,65,30.04,6.2,East,19.6,-,N/A,,Partly Cloudy,80,2013-03-09 16:00:00
12:00 PM,82.4,68.0,62,30.01,6.2,East,19.6,-,N/A,,Partly Cloudy,90,2013-03-09 17:00:00
1:00 PM,82,67,51,29.99,16,East,24.2,,,,,80,2013-03-09 18:00:00
1:00 PM,82.4,66.2,58,29.98,6.2,East,24.2,-,N/A,,Partly Cloudy,80,2013-03-09 18:00:00
2:00 PM,82.4,66.2,58,29.98,6.2,ENE,21.9,-,N/A,,Partly Cloudy,70,2013-03-09 19:00:00
3:00 PM,80.6,66.2,61,29.95,6.2,East,23.0,-,N/A,,Partly Cloudy,80,2013-03-09 20:00:00
4:00 PM,80,66,54,29.96,16,East,23.0,,,,Haze,80,2013-03-09 21:00:00
4:00 PM,80.6,66.2,61,29.95,6.2,East,23.0,-,N/A,,Partly Cloudy,80,2013-03-09 21:00:00
5:00 PM,80.6,66.2,61,29.95,6.2,ENE,23.0,-,N/A,,Partly Cloudy,60,2013-03-09 22:00:00
6:00 PM,80.6,66.2,61,29.98,6.2,East,20.7,-,N/A,,Partly Cloudy,80,2013-03-09 23:00:00
7:00 PM,76,63,55,29.99,12,ESE,8.1,,,,Scattered Clouds,110,2013-03-10 00:00:00
7:00 PM,75.2,62.6,65,29.98,6.2,ESE,8.1,-,N/A,,Partly Cloudy,110,2013-03-10 00:00:00
8:00 PM,75.2,62.6,65,29.98,6.2,ESE,9.2,-,N/A,,Partly Cloudy,110,2013-03-10 01:00:00
10:00 PM,74,63,61,30.04,12,ESE,8.1,,,,Scattered Clouds,120,2013-03-10 03:00:00
10:00 PM,75.2,62.6,65,30.04,6.2,ESE,8.1,-,N/A,,Partly Cloudy,120,2013-03-10 03:00:00
11:00 PM,73.4,62.6,69,30.01,6.2,ESE,6.9,-,N/A,,Partly Cloudy,120,2013-03-10 04:00:00